Home   Weather   Porto Velho   Past weeks

Flag for Brazil Past Weather in Porto Velho, Rondônia, Brazil — Yesterday and Last 2 Weeks

Now
79 °F

Scattered showers. Scattered clouds.


Feels Like: 82 °F
Forecast: 74 / 82 °F
Wind: 7 mph from Southeast

Location: Porto Velho Aeroporto

Current Time: Apr 27, 2017 at 10:53:57 am

Latest Report: Apr 27, 2017 at 10:00 am


Visibility: N/A

Pressure: 29.95 "Hg

Humidity: 84%

Dew Point: 73 °F

Location of Porto VelhoLocation

Past Weather in Porto Velho — Graph

°F

Porto Velho Temperature Yesterday

Maximum temperature yesterday: 88 °F (at 1:00 pm)
Minimum temperature yesterday: 73 °F (at 4:00 am)
Average temperature yesterday: 80 °F

High & Low Weather Summary for the Past Weeks

 TemperatureHumidityPressure
High91 °F (Apr 25, 2:00 pm)100% (Apr 16, 5:00 am)29.98 "Hg (Apr 16, 5:00 am)
Low72 °F (Apr 14, 3:00 am)22% (Apr 20, 4:00 pm)29.71 "Hg (Apr 26, 5:00 pm)
Average79 °F85%29.85 "Hg
* Reported Apr 12 9:00 am — Apr 27 9:00 am, Porto Velho, Weather by CustomWeather, © 2017

Note: Actual official high and low records may vary slightly from our data, if they occured in-between our weather recording intervals... More about our weather records

Advertising

Porto Velho Weather History for the Previous 24 Hours

Scroll right to see more
 ConditionsComfort  
Time TempWeatherWind HumidityBarometerVisibility
9:00 am
Thu, Apr 27
77 °FScattered clouds.8 mph89%29.92 "HgN/A
8:00 am77 °FScattered clouds.3 mph94%29.89 "HgN/A
7:00 am77 °FBroken clouds.3 mph94%29.86 "HgN/A
6:40 am77 °FPartly sunny.6 mph94%29.86 "HgN/A
6:00 am75 °FPassing clouds.2 mph94%29.83 "HgN/A
5:00 am77 °FClear.No wind94%29.80 "Hg10 mi
4:00 am77 °FClear.2 mph94%29.80 "Hg10 mi
3:00 am77 °FClear.No wind94%29.83 "Hg10 mi
2:00 am77 °FThundershowers. Passing clouds.No wind94%29.83 "HgN/A
1:00 am77 °FThundershowers. Passing clouds.2 mph94%29.83 "HgN/A
12:00 am77 °FClear.No wind94%29.86 "Hg10 mi
11:00 pm
Wed, Apr 26
77 °FClear.No wind94%29.86 "Hg10 mi
10:00 pm79 °FThundershowers. Passing clouds.2 mph94%29.83 "HgN/A
9:00 pm77 °FThundershowers. Passing clouds.1 mph94%29.80 "HgN/A
8:00 pm79 °FThundershowers. Passing clouds.No wind89%29.77 "HgN/A
7:00 pm79 °FPassing clouds.1 mph89%29.74 "HgN/A
6:00 pm82 °FScattered clouds.2 mph84%29.74 "HgN/A
5:00 pm86 °FScattered clouds.3 mph75%29.71 "HgN/A
4:00 pm88 °FScattered clouds.5 mph62%29.74 "HgN/A
3:00 pm88 °FScattered clouds.6 mph66%29.77 "HgN/A
2:00 pm88 °FScattered clouds.5 mph62%29.80 "HgN/A
1:00 pm88 °FScattered clouds.3 mph66%29.83 "HgN/A
12:00 pm86 °FBroken clouds.6 mph70%29.86 "HgN/A
11:00 am84 °FSunny.5 mph70%29.86 "Hg10 mi
10:00 am82 °FSunny.6 mph79%29.86 "Hg10 mi
Weather by CustomWeather, © 2017

See weather overviewHow to use our weather pages